SCP
0 0 0 0 0 0 0 0 0 0 0 0 0 0 0 0 0 0 0 0 0 0 0 0 0 0 0 0 0 0 0 0 0 0 0 0 0 0 0 0 0 0 0
-0 -0 -0 0 0 0 0 0 0 0 0 0 0 0 0 0 0 0 0 0 0 0 0 0 0 0 0 0 0 0 0 0 0 0 0 0 0 0 0 0 0 0 0
-0 -0 -0 -0 0 0 0 0 0 0 0 0 0 0 0 0 0 0 0 0 0 0 0 0 0 0 0 0 0 0 0 0 0 0 0 0 0 0 0 0 0 0 0
0 0 0 0 0 0 0 0 0 0 0 0 0 0 0 0 0 0 0 0 0 0 0 0 0 0 0 0 0 0 0 0 0 0 0 0 0 0 0 0 0 0 0
0 0 0 0 0 0 0 0 0 0 0 0 0 0 0 0 0 0 0 0 0 0 0 0 0 0 0 0 0 0 0 0 0 0 0 0 0 0 0 0 0 0 0
0 0 0 0 0 0 0 0 0 0 0 0 0 0 0 0 0 0 0 0 0 0 0 0 0 0 0 0 0 0 0 0 0 0 0 0 0 0 0 0 0 0 0
0 0 0 0 0 0 0 0 0 0 0 0 0 0 0 0 0 0 0 0 0 0 0 0 0 0 0 0 0 0 0 0 0 0 0 0 0 0 0 0 0 0 0
0 0 0 0 0 0 0 0 0 0 0 0 0 0 0 0 0 0 0 0 0 0 0 0 0 0 0 0 0 0 0 0 0 0 0 0 0 0 0 0 0 0 0
0 0 0 0 0 0 0 0 0 0 0 0 0 0 0 0 0 0 0 0 0 0 0 0 0 0 0 0 0 0 0 0 0 0 0 0 0 0 0 0 0 0 0
0 0 0 0 0 0 0 0 0 0 0 0 0 0 0 0 0 -0 0 0 0 0 0 0 0 0 0 0 0 0 0 0 0 0 0 0 0 0 0 0 0 0 0
-0 0 0 0 0 0 0 0 0 0 0 0 0 0 0 0 0 -0 -0 -0 0 0 0 0 0 0 0 0 0 0 0 0 0 0 0 0 0 0 0 0 0 0 0
-0 0 0 0 0 0 0 0 0 0 0 0 0 0 0 0 0 -0 -0 -0 0 0 0 0 0 0 0 0 0 0 0 0 0 0 0 0 0 0 0 0 0 0 0
0 0 0 0 0 0 0 0 0 0 0 0 0 0 0 0 0 0 -0 0 0 0 0 0 0 0 0 0 0 0 0 0 0 0 0 0 0 0 0 0 0 0 0
0 0 0 0 0 0 0 0 0 0 0 0 0 0 0 0 0 0 0 -0 -0 -0 0 0 0 0 0 0 0 0 0 0 0 0 0 0 0 0 0 0 0 0 0
0 0 0 0 0 0 0 0 0 0 0 0 0 0 0 0 0 -0 0 0 0 0 0 0 0 0 0 0 0 0 0 0 0 0 0 0 0 0 0 0 0 0 0
0 0 0 0 0 0 0 0 0 0 0 0 0 0 0 0 0 0 0 0 0 0 0 0 0 0 0 0 0 0 0 0 0 0 0 0 0 0 0 0 0 0 0
0 0 0 0 0 0 0 0 0 0 0 0 0 0 0 0 0 0 0 0 0 0 0 0 0 0 0 0 0 0 0 0 0 0 0 0 0 0 0 0 0 0 0
0 0 0 0 0 0 0 0 0 0 0 0 0 0 0 0 0 0 0 0 0 0 -0 0 0 0 0 0 0 0 0 0 0 0 0 0 0 0 0 0 0 0 0
0 0 0 0 0 0 0 0 0 0 0 0 0 0 0 0 0 0 0 0 0 0 0 0 -0 0 0 0 0 0 0 0 0 0 0 0 0 0 0 0 0 0 0
0 0 0 0 0 0 0 0 0 0 0 0 0 0 0 0 0 0 0 0 0 0 0 0 0 0 0 0 0 0 0 0 0 0 0 0 0 0 0 0 0 0 0
0 0 0 0 0 0 0 0 0 0 0 0 0 0 0 0 0 0 0 0 0 0 0 0 -0 0 0 0 0 0 0 0 0 0 0 0 0 0 0 0 0 0 0
0 0 0 0 0 0 0 0 0 0 0 0 0 0 0 0 0 0 0 0 0 0 0 0 0 0 0 0 0 0 0 0 0 0 0 0 0 0 0 0 0 0 0
0 0 0 0 0 0 0 0 0 0 0 0 0 0 0 0 0 0 0 0 0 0 0 0 0 0 0 0 0 0 0 0 0 0 0 0 0 0 0 0 0 0 0
0 0 0 0 0 0 0 0 0 0 0 0 0 0 0 0 0 0 0 0 0 0 0 0 0 0 0 0 0 0 0 0 0 0 0 0 0 0 0 0 0 0 0
0 0 0 0 0 0 0 0 0 0 0 0 0 0 0 0 0 0 0 0 0 0 0 0 0 0 0 0 0 0 0 0 0 0 0 0 0 0 0 0 0 0 0
0 0 0 0 0 -0 0 -0 0 0 0 0 0 0 0 0 0 0 0 0 0 0 0 0 0 0 0 0 0 0 0 0 0 0 0 0 0 0 0 0 0 0 0
Wind_Speed_500mb
24 23 22 20 20 21 21 21 18 17 14 11 10 13 20 23 21 24 26 28 26 25 28 23 20 15 28 29 23 22 23 26 35 35 33 26 20 19 22 20 15 10 6
26 23 22 21 22 21 20 19 19 19 17 15 13 12 15 22 24 23 23 27 27 26 26 29 29 23 23 23 22 22 24 24 34 38 39 32 23 23 24 20 16 11 8
30 27 25 25 25 25 23 22 21 20 20 18 18 16 15 17 24 25 23 27 26 30 28 29 32 32 22 25 25 25 24 25 31 33 35 32 29 27 28 26 21 15 9
34 32 30 30 29 29 28 26 25 23 22 21 19 18 18 18 19 24 28 25 27 28 30 28 32 33 27 25 26 26 24 25 27 30 32 32 30 30 32 30 27 20 14
35 35 34 33 32 32 32 30 27 26 25 23 22 20 19 18 19 20 24 27 28 27 27 28 33 32 28 24 21 25 26 25 27 29 31 31 33 33 37 35 32 25 20
37 40 40 38 34 32 32 30 27 24 23 23 23 23 22 20 18 20 22 24 26 27 25 26 30 33 33 28 18 29 27 25 25 28 30 28 27 30 34 33 32 27 22
39 39 42 44 42 36 33 30 27 25 24 25 26 25 25 24 23 21 21 23 23 25 26 25 31 33 33 32 28 28 33 29 26 26 27 23 19 18 27 30 29 21 20
44 42 41 44 45 44 38 32 31 29 26 24 26 27 28 29 28 27 25 23 23 22 25 27 29 33 33 31 30 30 30 29 26 25 25 22 15 15 19 22 23 19 17
43 41 41 41 43 43 45 37 31 30 31 28 25 26 27 29 32 31 28 27 23 19 22 26 26 32 34 33 25 24 29 31 29 27 25 24 21 18 20 21 22 19 17
44 44 42 44 44 42 45 43 36 32 30 31 29 27 27 28 29 33 33 29 24 20 18 22 25 29 36 38 32 30 27 28 27 27 26 28 25 22 21 19 20 17 16
52 52 49 48 48 45 41 47 44 40 37 35 33 29 27 28 29 31 34 35 31 24 16 19 21 28 34 38 33 32 28 27 26 28 25 26 25 24 23 23 21 18 14
60 60 58 56 53 49 44 49 50 48 46 42 39 34 30 27 27 28 31 33 35 32 23 17 22 25 32 37 37 34 35 31 30 29 29 29 28 29 26 24 22 20 15
58 60 64 63 61 56 51 49 55 54 53 50 47 43 35 30 27 28 28 29 31 31 27 18 23 22 27 38 39 35 38 36 30 29 32 32 30 29 28 26 26 22 18
62 61 60 65 67 63 59 55 55 61 62 59 56 52 45 38 29 30 29 31 28 29 30 22 21 22 22 32 40 38 42 39 32 30 32 34 31 31 30 27 26 23 20
68 66 64 62 64 66 64 64 61 61 61 67 65 57 54 50 35 33 30 30 33 33 32 28 20 23 23 29 41 43 44 42 39 34 37 34 33 35 32 30 28 25 21
76 74 70 66 65 65 65 67 65 65 62 61 65 66 63 59 47 38 34 33 32 33 35 35 27 27 24 32 40 48 50 47 41 38 40 34 35 37 35 34 30 26 22
76 77 76 73 69 67 67 65 69 68 63 65 64 67 68 65 57 47 40 36 37 38 38 36 37 32 36 31 39 47 55 52 45 44 41 38 37 40 39 36 32 28 26
69 72 74 76 75 70 68 69 65 63 64 69 64 66 68 67 64 56 48 44 43 43 44 40 37 39 40 43 37 44 51 53 52 53 46 44 43 44 44 41 35 30 29
61 66 67 68 70 69 67 66 67 68 72 73 71 70 67 68 65 62 55 57 50 47 47 47 42 38 41 47 47 42 48 52 54 59 54 48 48 47 48 45 38 33 30
56 57 58 61 65 66 66 67 68 71 72 74 76 77 74 68 69 68 64 60 57 54 50 51 50 45 41 44 50 50 48 50 53 61 60 52 50 52 52 49 44 39 35
55 54 53 55 58 60 62 63 64 70 74 75 77 75 70 66 74 76 73 70 67 62 58 55 52 51 44 45 50 57 53 54 54 60 63 58 52 56 53 52 47 41 39
50 53 52 53 53 55 57 58 61 65 70 75 76 73 66 63 67 70 73 76 76 69 61 60 58 55 51 49 51 57 57 57 58 60 63 61 55 56 57 58 54 49 45
49 51 52 54 54 53 53 54 58 62 65 69 70 71 69 70 71 72 71 68 68 68 63 62 62 60 58 53 52 58 58 59 59 59 63 62 58 58 62 61 59 56 50
37 38 43 48 51 53 54 54 52 53 56 61 65 68 70 71 72 72 70 69 66 62 59 60 63 63 61 57 55 56 59 53 58 58 59 63 57 61 66 64 63 58 52
41 38 38 40 44 48 49 50 50 50 50 51 55 60 65 68 71 72 70 66 66 62 59 60 63 63 61 58 57 55 54 53 58 54 57 62 58 61 67 67 66 63 57
54 47 40 36 36 38 42 40 46 48 47 43 43 46 50 56 61 65 65 63 62 60 60 59 58 59 62 58 59 58 57 53 55 55 57 63 62 64 70 71 70 67 64
Wind_Direction_500mb
359 3 7 13 14 10 5 6 7 7 3 346 317 282 274 279 271 261 258 263 254 261 248 239 249 262 280 292 287 280 264 250 240 249 258 267 262 236 236 237 241 244 261
340 344 347 351 352 353 352 352 347 344 342 340 329 305 283 276 274 268 265 263 265 269 262 255 248 243 275 283 291 286 274 259 245 247 253 258 261 240 231 228 229 229 235
317 323 329 337 343 346 347 345 344 343 340 337 333 326 307 289 287 283 269 270 268 255 259 264 257 249 252 275 298 298 285 265 256 253 252 257 253 246 230 226 223 219 221
299 303 310 319 328 334 339 340 340 338 336 338 338 332 325 309 287 281 278 272 271 269 259 265 264 258 258 266 277 293 294 276 262 253 252 251 251 244 231 223 224 220 226
283 279 284 296 307 320 329 333 336 338 338 338 341 342 335 322 307 288 277 273 268 269 267 258 259 253 254 266 283 294 290 275 260 256 253 249 247 238 229 223 224 224 230
289 278 274 273 285 299 314 322 327 336 343 345 341 339 340 337 324 309 286 272 269 264 263 259 253 254 251 251 264 283 291 268 257 255 258 257 251 242 229 223 227 226 224
302 288 280 276 272 276 291 304 310 315 323 334 344 349 345 340 337 324 313 290 270 266 262 257 252 247 249 252 249 265 288 272 253 255 256 259 247 239 224 225 229 230 236
306 300 289 279 273 268 270 283 295 305 312 323 333 338 347 347 342 336 328 315 289 265 265 259 254 245 243 246 255 250 275 269 252 251 253 247 232 211 219 224 233 236 232
309 304 297 290 277 269 262 268 280 295 298 305 318 328 333 342 348 344 337 328 320 277 255 258 251 248 238 240 245 253 265 262 251 245 242 233 221 210 208 216 219 226 226
311 308 302 295 292 281 257 255 266 281 288 293 301 312 321 328 336 345 343 336 327 311 259 253 252 247 240 236 239 251 258 262 255 248 243 234 220 214 213 212 214 221 229
305 305 304 301 297 293 264 250 256 264 275 283 290 300 309 315 319 329 338 340 332 320 296 256 250 248 243 241 238 243 251 258 267 253 239 232 222 214 213 212 213 224 225
295 295 294 294 297 296 287 257 254 259 265 274 284 291 297 304 312 318 323 333 334 329 314 253 255 246 236 237 238 237 238 240 249 249 238 229 222 217 217 213 215 222 218
292 287 286 284 285 288 288 278 263 258 260 265 272 280 286 292 302 310 314 319 326 328 319 293 262 253 239 229 234 235 239 241 247 243 238 228 220 220 219 216 216 219 216
292 289 285 281 280 279 278 277 273 265 260 259 263 271 279 280 288 298 308 311 315 321 317 303 273 267 252 235 233 231 234 243 245 243 236 230 219 217 217 215 216 216 212
292 288 285 283 280 278 274 271 270 267 266 263 262 264 268 272 278 284 296 307 312 312 309 299 281 271 256 240 230 232 237 237 241 239 231 228 220 218 216 214 209 210 213
290 288 285 280 277 275 274 270 263 263 263 262 260 259 262 265 267 273 281 292 299 301 298 300 290 274 268 255 241 234 235 237 239 238 238 225 225 222 217 212 210 208 206
284 284 284 281 276 272 271 269 269 262 257 257 256 255 255 261 262 264 266 275 284 288 291 293 291 275 270 262 252 247 243 241 238 236 244 232 225 223 219 215 212 207 203
282 279 277 277 277 273 267 266 265 263 262 256 251 257 256 256 258 259 259 262 268 278 287 290 285 283 266 266 257 251 249 243 239 238 237 237 225 223 218 215 213 210 206
285 280 278 275 273 273 271 265 262 260 256 257 256 251 254 258 256 255 254 257 262 268 278 283 284 279 276 260 261 254 252 246 239 237 235 236 227 221 218 214 213 209 207
293 288 285 280 276 272 269 266 262 260 258 256 256 254 254 253 253 255 256 256 257 262 270 274 278 280 273 267 254 257 252 248 240 237 235 231 230 222 220 215 211 209 205
302 297 292 287 282 279 277 270 262 260 260 258 255 254 257 257 255 254 253 253 255 259 263 265 269 272 267 266 252 252 254 248 242 237 234 228 226 223 217 215 213 208 205
303 300 296 292 289 284 279 273 268 263 259 259 259 258 255 249 251 253 251 252 254 255 257 261 263 265 266 262 254 247 253 247 243 238 233 228 224 222 215 214 209 206 203
308 305 302 299 296 291 286 278 270 266 262 260 259 258 256 252 252 253 255 254 253 251 248 251 253 256 259 258 250 243 247 250 244 240 234 225 223 220 215 212 209 205 200
319 311 304 300 298 296 291 286 282 275 268 262 259 257 255 253 252 253 254 254 252 250 244 242 244 247 251 253 246 244 242 249 245 241 234 225 219 218 213 209 208 205 198
341 323 308 299 297 297 296 291 287 281 275 268 262 257 255 254 253 252 252 251 249 245 240 237 239 242 244 247 244 240 238 244 242 239 231 222 215 217 210 207 205 201 196
5 358 344 327 307 288 280 284 288 288 284 279 273 266 260 254 252 252 250 246 243 239 236 231 232 237 239 240 236 235 237 239 235 233 227 218 209 209 207 205 203 199 194
Wind_Speed_850mb
24 23 22 20 20 21 21 21 18 17 14 11 10 13 20 23 21 24 26 28 26 25 28 23 20 15 28 29 23 22 23 26 35 35 33 26 20 19 22 20 15 10 6
26 23 22 21 22 21 20 19 19 19 17 15 13 12 15 22 24 23 23 27 27 26 26 29 29 23 23 23 22 22 24 24 34 38 39 32 23 23 24 20 16 11 8
30 27 25 25 25 25 23 22 21 20 20 18 18 16 15 17 24 25 23 27 26 30 28 29 32 32 22 25 25 25 24 25 31 33 35 32 29 27 28 26 21 15 9
34 32 30 30 29 29 28 26 25 23 22 21 19 18 18 18 19 24 28 25 27 28 30 28 32 33 27 25 26 26 24 25 27 30 32 32 30 30 32 30 27 20 14
35 35 34 33 32 32 32 30 27 26 25 23 22 20 19 18 19 20 24 27 28 27 27 28 33 32 28 24 21 25 26 25 27 29 31 31 33 33 37 35 32 25 20
37 40 40 38 34 32 32 30 27 24 23 23 23 23 22 20 18 20 22 24 26 27 25 26 30 33 33 28 18 29 27 25 25 28 30 28 27 30 34 33 32 27 22
39 39 42 44 42 36 33 30 27 25 24 25 26 25 25 24 23 21 21 23 23 25 26 25 31 33 33 32 28 28 33 29 26 26 27 23 19 18 27 30 29 21 20
44 42 41 44 45 44 38 32 31 29 26 24 26 27 28 29 28 27 25 23 23 22 25 27 29 33 33 31 30 30 30 29 26 25 25 22 15 15 19 22 23 19 17
43 41 41 41 43 43 45 37 31 30 31 28 25 26 27 29 32 31 28 27 23 19 22 26 26 32 34 33 25 24 29 31 29 27 25 24 21 18 20 21 22 19 17
44 44 42 44 44 42 45 43 36 32 30 31 29 27 27 28 29 33 33 29 24 20 18 22 25 29 36 38 32 30 27 28 27 27 26 28 25 22 21 19 20 17 16
52 52 49 48 48 45 41 47 44 40 37 35 33 29 27 28 29 31 34 35 31 24 16 19 21 28 34 38 33 32 28 27 26 28 25 26 25 24 23 23 21 18 14
60 60 58 56 53 49 44 49 50 48 46 42 39 34 30 27 27 28 31 33 35 32 23 17 22 25 32 37 37 34 35 31 30 29 29 29 28 29 26 24 22 20 15
58 60 64 63 61 56 51 49 55 54 53 50 47 43 35 30 27 28 28 29 31 31 27 18 23 22 27 38 39 35 38 36 30 29 32 32 30 29 28 26 26 22 18
62 61 60 65 67 63 59 55 55 61 62 59 56 52 45 38 29 30 29 31 28 29 30 22 21 22 22 32 40 38 42 39 32 30 32 34 31 31 30 27 26 23 20
68 66 64 62 64 66 64 64 61 61 61 67 65 57 54 50 35 33 30 30 33 33 32 28 20 23 23 29 41 43 44 42 39 34 37 34 33 35 32 30 28 25 21
76 74 70 66 65 65 65 67 65 65 62 61 65 66 63 59 47 38 34 33 32 33 35 35 27 27 24 32 40 48 50 47 41 38 40 34 35 37 35 34 30 26 22
76 77 76 73 69 67 67 65 69 68 63 65 64 67 68 65 57 47 40 36 37 38 38 36 37 32 36 31 39 47 55 52 45 44 41 38 37 40 39 36 32 28 26
69 72 74 76 75 70 68 69 65 63 64 69 64 66 68 67 64 56 48 44 43 43 44 40 37 39 40 43 37 44 51 53 52 53 46 44 43 44 44 41 35 30 29
61 66 67 68 70 69 67 66 67 68 72 73 71 70 67 68 65 62 55 57 50 47 47 47 42 38 41 47 47 42 48 52 54 59 54 48 48 47 48 45 38 33 30
56 57 58 61 65 66 66 67 68 71 72 74 76 77 74 68 69 68 64 60 57 54 50 51 50 45 41 44 50 50 48 50 53 61 60 52 50 52 52 49 44 39 35
55 54 53 55 58 60 62 63 64 70 74 75 77 75 70 66 74 76 73 70 67 62 58 55 52 51 44 45 50 57 53 54 54 60 63 58 52 56 53 52 47 41 39
50 53 52 53 53 55 57 58 61 65 70 75 76 73 66 63 67 70 73 76 76 69 61 60 58 55 51 49 51 57 57 57 58 60 63 61 55 56 57 58 54 49 45
49 51 52 54 54 53 53 54 58 62 65 69 70 71 69 70 71 72 71 68 68 68 63 62 62 60 58 53 52 58 58 59 59 59 63 62 58 58 62 61 59 56 50
37 38 43 48 51 53 54 54 52 53 56 61 65 68 70 71 72 72 70 69 66 62 59 60 63 63 61 57 55 56 59 53 58 58 59 63 57 61 66 64 63 58 52
41 38 38 40 44 48 49 50 50 50 50 51 55 60 65 68 71 72 70 66 66 62 59 60 63 63 61 58 57 55 54 53 58 54 57 62 58 61 67 67 66 63 57
54 47 40 36 36 38 42 40 46 48 47 43 43 46 50 56 61 65 65 63 62 60 60 59 58 59 62 58 59 58 57 53 55 55 57 63 62 64 70 71 70 67 64
Wind_Direction_850mb
359 3 7 13 14 10 5 6 7 7 3 346 317 282 274 279 271 261 258 263 254 261 248 239 249 262 280 292 287 280 264 250 240 249 258 267 262 236 236 237 241 244 261
340 344 347 351 352 353 352 352 347 344 342 340 329 305 283 276 274 268 265 263 265 269 262 255 248 243 275 283 291 286 274 259 245 247 253 258 261 240 231 228 229 229 235
317 323 329 337 343 346 347 345 344 343 340 337 333 326 307 289 287 283 269 270 268 255 259 264 257 249 252 275 298 298 285 265 256 253 252 257 253 246 230 226 223 219 221
299 303 310 319 328 334 339 340 340 338 336 338 338 332 325 309 287 281 278 272 271 269 259 265 264 258 258 266 277 293 294 276 262 253 252 251 251 244 231 223 224 220 226
283 279 284 296 307 320 329 333 336 338 338 338 341 342 335 322 307 288 277 273 268 269 267 258 259 253 254 266 283 294 290 275 260 256 253 249 247 238 229 223 224 224 230
289 278 274 273 285 299 314 322 327 336 343 345 341 339 340 337 324 309 286 272 269 264 263 259 253 254 251 251 264 283 291 268 257 255 258 257 251 242 229 223 227 226 224
302 288 280 276 272 276 291 304 310 315 323 334 344 349 345 340 337 324 313 290 270 266 262 257 252 247 249 252 249 265 288 272 253 255 256 259 247 239 224 225 229 230 236
306 300 289 279 273 268 270 283 295 305 312 323 333 338 347 347 342 336 328 315 289 265 265 259 254 245 243 246 255 250 275 269 252 251 253 247 232 211 219 224 233 236 232
309 304 297 290 277 269 262 268 280 295 298 305 318 328 333 342 348 344 337 328 320 277 255 258 251 248 238 240 245 253 265 262 251 245 242 233 221 210 208 216 219 226 226
311 308 302 295 292 281 257 255 266 281 288 293 301 312 321 328 336 345 343 336 327 311 259 253 252 247 240 236 239 251 258 262 255 248 243 234 220 214 213 212 214 221 229
305 305 304 301 297 293 264 250 256 264 275 283 290 300 309 315 319 329 338 340 332 320 296 256 250 248 243 241 238 243 251 258 267 253 239 232 222 214 213 212 213 224 225
295 295 294 294 297 296 287 257 254 259 265 274 284 291 297 304 312 318 323 333 334 329 314 253 255 246 236 237 238 237 238 240 249 249 238 229 222 217 217 213 215 222 218
292 287 286 284 285 288 288 278 263 258 260 265 272 280 286 292 302 310 314 319 326 328 319 293 262 253 239 229 234 235 239 241 247 243 238 228 220 220 219 216 216 219 216
292 289 285 281 280 279 278 277 273 265 260 259 263 271 279 280 288 298 308 311 315 321 317 303 273 267 252 235 233 231 234 243 245 243 236 230 219 217 217 215 216 216 212
292 288 285 283 280 278 274 271 270 267 266 263 262 264 268 272 278 284 296 307 312 312 309 299 281 271 256 240 230 232 237 237 241 239 231 228 220 218 216 214 209 210 213
290 288 285 280 277 275 274 270 263 263 263 262 260 259 262 265 267 273 281 292 299 301 298 300 290 274 268 255 241 234 235 237 239 238 238 225 225 222 217 212 210 208 206
284 284 284 281 276 272 271 269 269 262 257 257 256 255 255 261 262 264 266 275 284 288 291 293 291 275 270 262 252 247 243 241 238 236 244 232 225 223 219 215 212 207 203
282 279 277 277 277 273 267 266 265 263 262 256 251 257 256 256 258 259 259 262 268 278 287 290 285 283 266 266 257 251 249 243 239 238 237 237 225 223 218 215 213 210 206
285 280 278 275 273 273 271 265 262 260 256 257 256 251 254 258 256 255 254 257 262 268 278 283 284 279 276 260 261 254 252 246 239 237 235 236 227 221 218 214 213 209 207
293 288 285 280 276 272 269 266 262 260 258 256 256 254 254 253 253 255 256 256 257 262 270 274 278 280 273 267 254 257 252 248 240 237 235 231 230 222 220 215 211 209 205
302 297 292 287 282 279 277 270 262 260 260 258 255 254 257 257 255 254 253 253 255 259 263 265 269 272 267 266 252 252 254 248 242 237 234 228 226 223 217 215 213 208 205
303 300 296 292 289 284 279 273 268 263 259 259 259 258 255 249 251 253 251 252 254 255 257 261 263 265 266 262 254 247 253 247 243 238 233 228 224 222 215 214 209 206 203
308 305 302 299 296 291 286 278 270 266 262 260 259 258 256 252 252 253 255 254 253 251 248 251 253 256 259 258 250 243 247 250 244 240 234 225 223 220 215 212 209 205 200
319 311 304 300 298 296 291 286 282 275 268 262 259 257 255 253 252 253 254 254 252 250 244 242 244 247 251 253 246 244 242 249 245 241 234 225 219 218 213 209 208 205 198
341 323 308 299 297 297 296 291 287 281 275 268 262 257 255 254 253 252 252 251 249 245 240 237 239 242 244 247 244 240 238 244 242 239 231 222 215 217 210 207 205 201 196
5 358 344 327 307 288 280 284 288 288 284 279 273 266 260 254 252 252 250 246 243 239 236 231 232 237 239 240 236 235 237 239 235 233 227 218 209 209 207 205 203 199 194